• en France
  • Liste des pays
  • À 7 jours
  • Température de l'eau
  • Carte satellitaire
  • Carte météo
  • Widgets météo
  • user-avatar
    Se connecter

    Météo par heure à Loubomo

    Ce jour, 21 Mai, Lundi

    Heure Température Précipitation Vent Pression Humidité
    00:00 +22°C° 0 mm 1 m/s 700 mmHg 97%
    01:00 +22°C° 0 mm 1 m/s 700 mmHg 97%
    02:00 +22°C° 0 mm 1 m/s 700 mmHg 98%
    03:00 +22°C° 0 mm 1 m/s 700 mmHg 98%
    04:00 +22°C° 0 mm 1 m/s 700 mmHg 99%
    05:00 +22°C° 0 mm 1 m/s 700 mmHg 98%
    06:00 +22°C° 0 mm 1 m/s 700 mmHg 96%
    07:00 +22°C° 0 mm 1 m/s 701 mmHg 95%
    08:00 +25°C° 0 mm 1 m/s 701 mmHg 84%
    09:00 +27°C° 0 mm 1 m/s 702 mmHg 73%
    10:00 +29°C° 0 mm 2 m/s 702 mmHg 62%
    11:00 +30°C° 0 mm 1 m/s 702 mmHg 59%
    12:00 +31°C° 0 mm 1 m/s 701 mmHg 56%
    13:00 +32°C° 0 mm 1 m/s 701 mmHg 53%
    14:00 +31°C° 0 mm 1 m/s 700 mmHg 55%
    15:00 +31°C° 0 mm 1 m/s 700 mmHg 57%
    16:00 +29°C° 0 mm 0 m/s 699 mmHg 59%
    17:00 +29°C° 0,4 mm 1 m/s 699 mmHg 69%
    18:00 +27°C° 0,4 mm 1 m/s 699 mmHg 78%
    19:00 +24°C° 0,4 mm 1 m/s 699 mmHg 88%
    20:00 +24°C° 0,8 mm 1 m/s 699 mmHg 91%
    21:00 +23°C° 0,8 mm 1 m/s 700 mmHg 95%
    22:00 +23°C° 0,8 mm 1 m/s 700 mmHg 98%
    23:00 +22°C° 0,2 mm 1 m/s 700 mmHg 98%

    Demain, 22 Mai, Mardi

    Heure Température Précipitation Vent Pression Humidité
    00:00 +22°C° 0,2 mm 1 m/s 700 mmHg 98%
    01:00 +22°C° 0,2 mm 1 m/s 700 mmHg 99%
    02:00 +22°C° 0 mm 1 m/s 700 mmHg 99%
    03:00 +22°C° 0 mm 1 m/s 700 mmHg 99%
    04:00 +21°C° 0 mm 1 m/s 700 mmHg 99%
    05:00 +22°C° 0 mm 1 m/s 700 mmHg 99%
    06:00 +22°C° 0 mm 1 m/s 700 mmHg 98%
    07:00 +22°C° 0 mm 1 m/s 701 mmHg 98%
    08:00 +24°C° 0 mm 1 m/s 701 mmHg 87%
    09:00 +26°C° 0 mm 1 m/s 702 mmHg 76%
    10:00 +29°C° 0 mm 1 m/s 702 mmHg 65%
    11:00 +31°C° 0 mm 1 m/s 702 mmHg 57%
    12:00 +33°C° 0 mm 1 m/s 702 mmHg 49%
    13:00 +35°C° 0 mm 1 m/s 701 mmHg 41%
    14:00 +34°C° 0 mm 1 m/s 700 mmHg 46%
    15:00 +33°C° 0 mm 1 m/s 700 mmHg 51%
    16:00 +32°C° 0 mm 1 m/s 699 mmHg 55%
    17:00 +30°C° 0 mm 1 m/s 699 mmHg 63%
    18:00 +28°C° 0 mm 1 m/s 699 mmHg 70%
    19:00 +26°C° 0 mm 1 m/s 700 mmHg 77%
    20:00 +25°C° 0,1 mm 1 m/s 700 mmHg 82%
    21:00 +25°C° 0,1 mm 1 m/s 701 mmHg 86%
    22:00 +24°C° 0,1 mm 1 m/s 701 mmHg 91%
    23:00 +23°C° 0 mm 1 m/s 701 mmHg 93%

    Après-demain, 23 Mai, Mercredi

    Heure Température Précipitation Vent Pression Humidité
    00:00 +23°C° 0 mm 1 m/s 701 mmHg 95%
    01:00 +23°C° 0 mm 1 m/s 701 mmHg 97%
    02:00 +20°C° 1,8 mm 0 m/s 701 mmHg 98%
    03:00 +20°C° 1,8 mm 0 m/s 701 mmHg 98%
    04:00 +20°C° 1,8 mm 0 m/s 701 mmHg 99%
    05:00 +20°C° 3,1 mm 0 m/s 701 mmHg 99%
    06:00 +21°C° 3,1 mm 0 m/s 702 mmHg 98%
    07:00 +21°C° 3,1 mm 0 m/s 702 mmHg 98%
    08:00 +23°C° 0,4 mm 1 m/s 702 mmHg 97%
    09:00 +24°C° 0,4 mm 1 m/s 703 mmHg 95%
    10:00 +25°C° 0,4 mm 1 m/s 703 mmHg 94%
    11:00 +26°C° 0 mm 1 m/s 703 mmHg 83%
    12:00 +28°C° 0 mm 1 m/s 702 mmHg 72%
    13:00 +30°C° 0 mm 1 m/s 702 mmHg 61%
    14:00 +30°C° 0 mm 1 m/s 701 mmHg 60%
    15:00 +30°C° 0 mm 1 m/s 701 mmHg 59%
    16:00 +31°C° 0 mm 1 m/s 700 mmHg 58%
    17:00 +29°C° 0 mm 1 m/s 700 mmHg 66%
    18:00 +25°C° 0 mm 0 m/s 701 mmHg 74%
    19:00 +23°C° 0 mm 0 m/s 701 mmHg 82%
    20:00 +23°C° 0,1 mm 0 m/s 701 mmHg 86%
    21:00 +22°C° 0,1 mm 0 m/s 702 mmHg 89%
    22:00 +24°C° 0,1 mm 1 m/s 702 mmHg 92%
    23:00 +23°C° 0,4 mm 1 m/s 702 mmHg 94%

    24 Mai, Jeudi

    Heure Température Précipitation Vent Pression Humidité
    00:00 +23°C° 0,4 mm 1 m/s 702 mmHg 96%
    01:00 +23°C° 0,4 mm 1 m/s 701 mmHg 98%
    02:00 +23°C° 0,7 mm 1 m/s 701 mmHg 98%
    03:00 +22°C° 0,7 mm 1 m/s 701 mmHg 99%
    04:00 +22°C° 0,7 mm 1 m/s 700 mmHg 99%
    05:00 +22°C° 0 mm 1 m/s 701 mmHg 99%
    06:00 +23°C° 0 mm 1 m/s 701 mmHg 98%
    07:00 +23°C° 0 mm 1 m/s 702 mmHg 98%
    08:00 +24°C° 0 mm 1 m/s 702 mmHg 91%
    09:00 +26°C° 0 mm 1 m/s 702 mmHg 84%
    10:00 +27°C° 0 mm 1 m/s 702 mmHg 77%
    11:00 +29°C° 0 mm 1 m/s 702 mmHg 67%
    12:00 +31°C° 0 mm 1 m/s 701 mmHg 57%
    13:00 +33°C° 0 mm 1 m/s 701 mmHg 46%
    14:00 +32°C° 0,4 mm 1 m/s 700 mmHg 53%
    15:00 +31°C° 0,4 mm 1 m/s 699 mmHg 60%
    16:00 +28°C° 0,4 mm 0 m/s 699 mmHg 67%
    17:00 +26°C° 0,7 mm 0 m/s 699 mmHg 76%
    18:00 +24°C° 0,7 mm 0 m/s 699 mmHg 86%
    19:00 +24°C° 0,7 mm 1 m/s 700 mmHg 95%
    20:00 +23°C° 0,1 mm 1 m/s 700 mmHg 96%
    21:00 +23°C° 0,1 mm 1 m/s 701 mmHg 97%
    22:00 +23°C° 0,1 mm 1 m/s 701 mmHg 98%
    23:00 +23°C° 0,2 mm 1 m/s 701 mmHg 98%

    25 Mai, Vendredi

    Heure Température Précipitation Vent Pression Humidité
    00:00 +22°C° 0,2 mm 1 m/s 700 mmHg 98%
    01:00 +22°C° 0,2 mm 1 m/s 700 mmHg 99%
    02:00 +22°C° 1,3 mm 1 m/s 700 mmHg 99%
    03:00 +22°C° 1,3 mm 1 m/s 700 mmHg 99%
    04:00 +22°C° 1,3 mm 1 m/s 700 mmHg 99%
    05:00 +22°C° 0,8 mm 1 m/s 700 mmHg 99%
    06:00 +22°C° 0,8 mm 1 m/s 701 mmHg 99%
    07:00 +22°C° 0,8 mm 1 m/s 701 mmHg 98%
    08:00 +23°C° 0,3 mm 1 m/s 701 mmHg 96%
    09:00 +24°C° 0,3 mm 1 m/s 701 mmHg 93%
    10:00 +25°C° 0,3 mm 1 m/s 702 mmHg 90%
    11:00 +27°C° 0,7 mm 1 m/s 701 mmHg 82%
    12:00 +28°C° 0,7 mm 1 m/s 700 mmHg 74%
    13:00 +29°C° 0,7 mm 1 m/s 700 mmHg 67%
    14:00 +29°C° 0,3 mm 1 m/s 700 mmHg 67%
    15:00 +29°C° 0,3 mm 1 m/s 699 mmHg 68%
    16:00 +30°C° 0,3 mm 1 m/s 699 mmHg 69%
    17:00 +27°C° 1,7 mm 1 m/s 699 mmHg 78%
    18:00 +25°C° 1,7 mm 1 m/s 699 mmHg 87%
    19:00 +23°C° 1,7 mm 1 m/s 700 mmHg 96%
    20:00 +23°C° 0,1 mm 1 m/s 700 mmHg 97%
    21:00 +23°C° 0,1 mm 1 m/s 700 mmHg 97%
    22:00 +20°C° 0,1 mm 0 m/s 701 mmHg 97%
    23:00 +20°C° 0,1 mm 0 m/s 700 mmHg 98%

    26 Mai, Samedi

    Heure Température Précipitation Vent Pression Humidité
    00:00 +20°C° 0,1 mm 0 m/s 700 mmHg 98%
    01:00 +20°C° 0,1 mm 0 m/s 700 mmHg 98%
    02:00 +20°C° 0 mm 0 m/s 699 mmHg 98%
    03:00 +20°C° 0 mm 0 m/s 699 mmHg 98%
    04:00 +20°C° 0 mm 0 m/s 699 mmHg 98%
    05:00 +20°C° 0,1 mm 0 m/s 700 mmHg 98%
    06:00 +20°C° 0,1 mm 0 m/s 700 mmHg 98%
    07:00 +20°C° 0,1 mm 0 m/s 701 mmHg 98%
    08:00 +22°C° 0,2 mm 0 m/s 701 mmHg 91%
    09:00 +24°C° 0,2 mm 0 m/s 702 mmHg 84%
    10:00 +25°C° 0,2 mm 0 m/s 702 mmHg 77%
    11:00 +25°C° 1 mm 0 m/s 701 mmHg 79%
    12:00 +25°C° 1 mm 0 m/s 700 mmHg 81%
    13:00 +27°C° 1 mm 1 m/s 700 mmHg 83%
    14:00 +27°C° 0,8 mm 1 m/s 699 mmHg 80%
    15:00 +28°C° 0,8 mm 1 m/s 699 mmHg 77%
    16:00 +28°C° 0,8 mm 1 m/s 698 mmHg 74%
    17:00 +24°C° 1,3 mm 0 m/s 699 mmHg 81%
    18:00 +23°C° 1,3 mm 0 m/s 699 mmHg 89%
    19:00 +21°C° 1,3 mm 0 m/s 700 mmHg 96%
    20:00 +21°C° 0,6 mm 0 m/s 700 mmHg 96%
    21:00 +20°C° 0,6 mm 0 m/s 701 mmHg 97%
    22:00 +20°C° 0,6 mm 0 m/s 701 mmHg 97%
    23:00 +20°C° 0,6 mm 0 m/s 701 mmHg 97%
    Voir plus